Location: Newark
(5.6667°N, 95.4333°E)
Time: 07:06:59
(UTC+00:00)

Envisat - Visible Passes

Search period start: 13 November 2019 00:00
Search period end: 23 November 2019 00:00
Orbit: 764 x 766 km, 98.1° (Epoch: 12 November)

Date Brightness Start Highest point End Pass type
(mag) Time Alt. Az. Time Alt. Az. Time Alt. Az.
13 Nov 4.1 12:28:24 10° S 12:33:13 45° WSW 12:38:03 10° NNW visible
14 Nov 3.0 11:51:32 10° SSE 11:56:33 63° ENE 12:01:33 10° N visible
15 Nov 5.5 12:54:50 10° SSW 12:58:40 22° W 13:02:30 10° NW visible
16 Nov 3.5 12:16:58 10° S 12:21:58 62° WSW 12:26:59 10° NNW visible
17 Nov 3.3 11:40:29 10° SSE 11:45:19 45° ENE 11:50:07 10° N visible
18 Nov 5.0 12:43:03 10° SSW 12:47:25 29° WSW 12:51:47 10° NW visible
19 Nov 3.0 12:05:39 10° S 12:10:44 85° WSW 12:15:48 10° NNW visible
20 Nov 6.0 13:10:16 10° SW 13:12:52 14° W 13:15:28 10° WNW visible
21 Nov 4.4 12:31:27 10° S 12:36:10 40° WSW 12:40:53 10° NNW visible
22 Nov 2.9 11:54:26 10° SSE 11:59:29 71° ENE 12:04:31 10° N visible
